Morgantown, WV

1:39 AM EDT on July 21, 2017 (GMT -0400)
Morgantown Municipal-Hart

Weather History for KMGW - December, 1998

Change the Weather History Date:

Thursday, December 17, 1998

  Actual Average Record
Temperature  
Mean Temperature 34 °F 34 °F  
Max Temperature 37 °F 42 °F 68 °F (1984)
Min Temperature 30 °F 27 °F 2 °F (1951)
Degree Days  
Heating Degree Days 32 31  
Month to date heating degree days 485  
Since 1 July heating degree days 1533  
Cooling Degree Days 0 0  
Month to date cooling degree days 0  
Year to date cooling degree days 814  
Moisture  
Dew Point 29 °F    
Average Humidity 83    
Maximum Humidity 100    
Minimum Humidity 70    
Precipitation  
Precipitation 0.08 in 0.09 in 1.00 in (2012)
Month to date precipitation 1.68  
Year to date precipitation 40.60  
Sea Level Pressure  
Sea Level Pressure 29.88 in    
Wind  
Wind Speed 9 mph (West)    
Max Wind Speed 14 mph    
Max Gust Speed 17 mph    
Visibility 7 miles    
Events Rain , Snow    
T = Trace of Precipitation, MM = Missing Value Source: NWS Daily Summary

Daily Weather History Graph

Daily Weather History Graph

Search for Another Location

Airport or City:

Trip Planner

Search our weather history database for the weather conditions in past years. The results will help you decide how hot, cold, wet, or windy it might be!

Date:

Astronomy

Dec. 17, 1998 Rise Set
Actual Time 7:34 AM EST 4:57 PM EST
Civil Twilight 7:04 AM EST 5:27 PM EST
Nautical Twilight 6:30 AM EST 6:01 PM EST
Astronomical Twilight 5:57 AM EST 6:34 PM EST
Moon 6:05 AM EST (12/17) 4:24 PM EST (12/17)
Length of Visible Light 10h 23m
Length of Day
9h 22m
Waning Crescent, 1% of the Moon is Illuminated
Dec 17
Waning Crescent
Dec 18
New
Dec 26
First Quarter
Jan 1
Full
Jan 9
Last Quarter

Hourly Weather History & Observations

Time (EST) Temp. Windchill Dew Point Humidity Pressure Visibility Wind Dir Wind Speed Gust Speed Precip Events Conditions
12:50 AM 37.4 °F 30.8 °F 30.2 °F 75% 29.81 in 7.0 mi SW 9.2 mph - N/A Rain Light Rain
1:50 AM 35.6 °F 28.6 °F 30.2 °F 81% 29.83 in 7.0 mi West 9.2 mph - N/A Rain Light Rain
2:29 AM 35.6 °F 29.2 °F 30.2 °F 81% 29.82 in 7.0 mi SW 8.1 mph - N/A Rain Light Rain
2:48 AM 35.6 °F 29.9 °F 30.2 °F 81% 29.84 in 7.0 mi SW 6.9 mph - N/A Rain Light Rain
3:50 AM 35.6 °F 27.5 °F 30.2 °F 81% 29.83 in 8.0 mi WSW 11.5 mph - N/A   Overcast
4:49 AM 35.6 °F 28.6 °F 30.2 °F 81% 29.82 in 10.0 mi WSW 9.2 mph - N/A   Overcast
5:50 AM 33.8 °F 25.8 °F 30.2 °F 87% 29.83 in 7.0 mi SW 10.4 mph - N/A Snow Light Snow
6:11 AM 33.8 °F 27.0 °F 30.2 °F 87% 29.82 in 6.0 mi WSW 8.1 mph - N/A Snow Light Snow
7:50 AM 35.6 °F 29.9 °F 32.0 °F 87% 29.83 in 1.0 mi West 6.9 mph - N/A Snow Light Snow
9:50 AM 35.6 °F 28.6 °F 33.8 °F 93% 29.85 in 1.5 mi WSW 9.2 mph - N/A Snow Light Snow
10:10 AM 35.6 °F 29.9 °F 32.0 °F 87% 29.85 in 1.5 mi West 6.9 mph - N/A Snow Light Snow
10:45 AM 35.6 °F 27.5 °F 32.0 °F 87% 29.86 in 2.0 mi WNW 11.5 mph - N/A Snow Light Snow
11:05 AM 35.6 °F 27.5 °F 32.0 °F 87% 29.86 in 7.0 mi WNW 11.5 mph 17.3 mph N/A   Overcast
11:45 AM 37.4 °F 28.9 °F 32.0 °F 81% 29.85 in 10.0 mi West 13.8 mph - N/A Snow Light Snow
12:45 PM 35.6 °F 28.6 °F 30.2 °F 81% 29.85 in 10.0 mi North 9.2 mph 17.3 mph N/A Snow Light Snow
2:27 PM 35.6 °F 28.6 °F 30.2 °F 81% 29.85 in 15.0 mi West 9.2 mph 17.3 mph N/A Snow Light Snow
2:45 PM 33.8 °F 27.7 °F 28.4 °F 81% 29.85 in 15.0 mi West 6.9 mph 16.1 mph N/A   Mostly Cloudy
3:45 PM 35.6 °F 28.6 °F 28.4 °F 75% 29.86 in 15.0 mi West 9.2 mph - N/A   Scattered Clouds
4:45 PM 35.6 °F 28.6 °F 26.6 °F 70% 29.89 in 10.0 mi West 9.2 mph 17.3 mph N/A Snow Light Snow
5:15 PM 33.8 °F 25.3 °F 28.4 °F 81% 29.91 in 3.0 mi West 11.5 mph 17.3 mph N/A Snow Light Snow
5:45 PM 30.2 °F 20.8 °F 30.2 °F 100% 29.92 in 6.0 mi West 11.5 mph - N/A Snow Light Snow
6:45 PM 32.0 °F 24.2 °F 26.6 °F 80% 29.94 in 6.0 mi West 9.2 mph - N/A Snow Light Snow
7:45 PM 32.0 °F 24.2 °F 24.8 °F 75% 29.96 in 10.0 mi West 9.2 mph - N/A   Overcast
8:45 PM 32.0 °F 23.0 °F 26.6 °F 80% 29.97 in 10.0 mi WSW 11.5 mph - N/A   Overcast
9:45 PM 32.0 °F 23.0 °F 26.6 °F 80% 29.99 in 5.0 mi West 11.5 mph - N/A Snow Light Snow
10:45 PM 32.0 °F 24.2 °F 24.8 °F 75% 30.00 in 5.0 mi West 9.2 mph - N/A Snow Light Snow
11:27 PM 30.2 °F 22.6 °F 28.4 °F 93% 30.02 in 0.5 mi SW 8.1 mph - N/A Snow Snow
11:50 PM 30.2 °F 22.6 °F 28.4 °F 93% 30.05 in 0.5 mi WSW 8.1 mph - N/A Snow Snow